| time (UTC) | temp C | wind direction | speed KPH | gust KPH | rain 1hr cm | rain 24hr cm | rain mn cm | humidity % | barometer mb |
| 20260905121700 | 7 | 230 | 57.9 | 83.7 | 0.00 | 0.00 | 0.00 | 81 | |
| 20260905112011 | 6 | 230 | 32.2 | 72.4 | 0.00 | 0.00 | 0.00 | 93 | |
| 20260905102440 | 6 | 250 | 49.9 | 69.2 | 0.00 | 0.00 | 0.00 | 86 | |
| 20260905092208 | 5 | 240 | 57.9 | 78.9 | 0.00 | 0.00 | 0.00 | 99 | |
| 20260905082004 | 5 | 250 | 83.7 | 99.8 | 0.00 | 0.00 | 0.00 | 93 | |
| 20260905072306 | 5 | 260 | 61.2 | 83.7 | 0.00 | 0.00 | 0.00 | 99 | |
| 20260905062010 | 3 | 250 | 78.9 | 0.0 | 0.00 | 0.00 | 0.00 | 99 | |
| 20260905052002 | 5 | 250 | 75.6 | 96.6 | 0.00 | 0.00 | 0.00 | 99 | |
| 20260905042411 | 6 | 260 | 86.9 | 122.3 | 0.00 | 0.00 | 0.00 | 99 | |
| 20260905032011 | 5 | 270 | 111.0 | 140.0 | 0.00 | 0.00 | 0.00 | 99 | |
| 20260905022003 | 7 | 270 | 103.0 | 122.3 | 0.00 | 0.00 | 0.00 | 70 | |
| 20260905012306 | 6 | 280 | 99.8 | 122.3 | 0.00 | 0.00 | 0.00 | 86 | |
| 20260905002028 | 7 | 270 | 96.6 | 114.3 | 0.00 | 0.00 | 0.00 | 99 | |
| 20260904232048 | 7 | 260 | 61.2 | 78.9 | 0.00 | 0.00 | 0.00 | 99 | |
| 20260904222417 | 8 | 240 | 53.1 | 78.9 | 0.00 | 0.00 | 0.00 | 99 | |
| 20260904212031 | 10 | 270 | 53.1 | 72.4 | 0.00 | 0.00 | 0.00 | 99 | |
| 20260904202029 | 7 | 230 | 46.7 | 83.7 | 0.00 | 0.00 | 0.00 | 99 | |
| 20260904192306 | 12 | 200 | 53.1 | 103.0 | 0.00 | 0.00 | 0.00 | 93 | |
| 20260904182029 | 13 | 200 | 49.9 | 96.6 | 0.00 | 0.00 | 0.00 | 87 | |
| 20260904172031 | 12 | 210 | 49.9 | 95.0 | 0.00 | 0.00 | 0.00 | 99 | |
| 20260904162306 | 12 | 210 | 38.6 | 90.1 | 0.00 | 0.00 | 0.00 | 99 | |
| 20260904152039 | 12 | 200 | 57.9 | 107.8 | 0.00 | 0.00 | 0.00 | 99 | |
| 20260904142029 | 12 | 210 | 53.1 | 103.0 | 0.00 | 0.00 | 0.00 | 99 | |
| 20260904132236 | 12 | 210 | 64.4 | 111.0 | 0.00 | 0.00 | 0.00 | 99 |